ITY570 LICC-LIMJ

Flight info

Callsign ITY570
Flight time 1h 23m
Altitude 34000
Route BUDIN DCT TAGEL DCT ELB DCT BETEN/N0386F180 M729 IDONA
Aircraft A321/M-SDE3FGHIRWY/LB1

Departure

Time 2026-04-28 00:03
Airport Catania-Fontanarossa Airport (LICC)

Arrival

Time 2026-04-28 01:27
Airport Genoa Cristoforo Colombo Airport (LIMJ)
Time Latitude Longitude Altitude Speed Heading
2026-04-27 23:44 37.46923 15.06682 51 ft 0 kts 352°
2026-04-27 23:54 37.46916 15.06683 51 ft 4 kts 354°
2026-04-27 23:54 37.46889 15.06684 48 ft 4 kts
2026-04-27 23:55 37.46863 15.06677 47 ft 4 kts 29°
2026-04-27 23:55 37.46850 15.06665 46 ft 4 kts 59°
2026-04-27 23:55 37.46845 15.06648 49 ft 1 kts 84°
2026-04-27 23:55 37.46845 15.06646 49 ft 0 kts 84°
2026-04-27 23:58 37.46846 15.06669 47 ft 7 kts 85°
2026-04-27 23:58 37.46855 15.06766 51 ft 13 kts 83°
2026-04-27 23:58 37.46865 15.06875 51 ft 12 kts 84°
2026-04-27 23:59 37.46872 15.06973 51 ft 11 kts 84°
2026-04-27 23:59 37.46879 15.07060 51 ft 9 kts 83°
2026-04-27 23:59 37.46886 15.07140 51 ft 9 kts 84°
2026-04-27 23:59 37.46892 15.07219 51 ft 10 kts 84°
2026-04-28 00:00 37.46902 15.07338 51 ft 14 kts 85°
2026-04-28 00:00 37.46911 15.07458 51 ft 13 kts 82°
2026-04-28 00:00 37.46922 15.07566 52 ft 12 kts 84°
2026-04-28 00:00 37.46930 15.07667 52 ft 12 kts 84°
2026-04-28 00:01 37.46938 15.07763 52 ft 10 kts 84°
2026-04-28 00:01 37.46946 15.07847 51 ft 9 kts 83°
2026-04-28 00:01 37.46952 15.07922 49 ft 8 kts 84°
2026-04-28 00:01 37.46958 15.07994 51 ft 9 kts 84°
2026-04-28 00:02 37.46933 15.08073 51 ft 14 kts 143°
2026-04-28 00:02 37.46827 15.08078 51 ft 15 kts 205°
2026-04-28 00:02 37.46788 15.07958 51 ft 19 kts 264°
2026-04-28 00:02 37.46753 15.07540 52 ft 85 kts 263°
2026-04-28 00:03 37.46669 15.06542 52 ft 145 kts 264°
2026-04-28 00:03 37.46546 15.05075 259 ft 176 kts 265°
2026-04-28 00:03 37.46435 15.03553 1005 ft 174 kts 266°
2026-04-28 00:03 37.46327 15.02044 1752 ft 172 kts 265°
2026-04-28 00:04 37.46211 15.00508 2123 ft 186 kts 264°
2026-04-28 00:04 37.45897 14.97005 2607 ft 215 kts 264°
2026-04-28 00:04 37.45740 14.95090 2908 ft 225 kts 264°
2026-04-28 00:05 37.45571 14.93079 3158 ft 244 kts 264°
2026-04-28 00:05 37.45388 14.90894 3799 ft 248 kts 263°
2026-04-28 00:05 37.45208 14.88742 4553 ft 248 kts 263°
2026-04-28 00:05 37.45021 14.86572 5246 ft 251 kts 262°
2026-04-28 00:06 37.44821 14.84382 5955 ft 252 kts 263°
2026-04-28 00:06 37.44619 14.82189 6672 ft 253 kts 263°
2026-04-28 00:06 37.44421 14.79988 7352 ft 254 kts 264°
2026-04-28 00:06 37.44583 14.77788 8005 ft 256 kts 292°
2026-04-28 00:07 37.45651 14.76023 8653 ft 258 kts 325°
2026-04-28 00:07 37.47337 14.75246 9317 ft 263 kts 351°
2026-04-28 00:07 37.49160 14.74992 10001 ft 264 kts 352°
2026-04-28 00:07 37.50996 14.74754 10613 ft 266 kts 352°
2026-04-28 00:08 37.52842 14.74515 11225 ft 268 kts 351°
2026-04-28 00:08 37.54704 14.74272 11792 ft 273 kts 351°
2026-04-28 00:08 37.56641 14.74014 11930 ft 294 kts 351°
2026-04-28 00:08 37.58748 14.73729 12076 ft 315 kts 351°
2026-04-28 00:09 37.60998 14.73422 12200 ft 335 kts 351°
2026-04-28 00:09 37.63378 14.73097 12323 ft 353 kts 351°
2026-04-28 00:09 37.65918 14.72753 12462 ft 371 kts 352°
2026-04-28 00:09 37.68540 14.72401 12611 ft 386 kts 352°
2026-04-28 00:10 37.71204 14.72044 13011 ft 393 kts 352°
2026-04-28 00:10 37.73933 14.71680 13543 ft 396 kts 352°
2026-04-28 00:10 37.76722 14.71307 14032 ft 399 kts 352°
2026-04-28 00:10 37.79494 14.70934 14475 ft 402 kts 352°
2026-04-28 00:11 37.82289 14.70556 14931 ft 405 kts 352°
2026-04-28 00:11 37.85101 14.70171 15372 ft 408 kts 352°
2026-04-28 00:11 37.87935 14.69780 15819 ft 411 kts 352°
2026-04-28 00:11 37.90801 14.69582 16249 ft 416 kts
2026-04-28 00:12 37.93688 14.70059 16687 ft 422 kts 11°
2026-04-28 00:12 37.96489 14.71237 17122 ft 427 kts 22°
2026-04-28 00:12 37.99119 14.73011 17566 ft 431 kts 28°
2026-04-28 00:12 38.01733 14.74891 18019 ft 433 kts 28°
2026-04-28 00:13 38.04362 14.76779 18468 ft 436 kts 28°
2026-04-28 00:13 38.07006 14.78675 18844 ft 438 kts 28°
2026-04-28 00:13 38.09636 14.80560 19232 ft 441 kts 28°
2026-04-28 00:13 38.12351 14.82506 19625 ft 443 kts 28°
2026-04-28 00:14 38.15005 14.84411 19994 ft 445 kts 28°
2026-04-28 00:14 38.17706 14.86351 20380 ft 447 kts 28°
2026-04-28 00:14 38.20419 14.88304 20758 ft 449 kts 28°
2026-04-28 00:14 38.23143 14.90266 21127 ft 451 kts 28°
2026-04-28 00:15 38.25919 14.92265 21488 ft 454 kts 28°
2026-04-28 00:15 38.28634 14.94223 21837 ft 456 kts 28°
2026-04-28 00:15 38.31394 14.96221 22202 ft 458 kts 28°
2026-04-28 00:15 38.34167 14.98233 22551 ft 460 kts 28°
2026-04-28 00:16 38.36955 15.00251 22895 ft 462 kts 28°
2026-04-28 00:16 38.39782 15.02217 23224 ft 463 kts 23°
2026-04-28 00:16 38.42861 15.03572 23537 ft 463 kts 11°
2026-04-28 00:16 38.46023 15.04089 23812 ft 464 kts
2026-04-28 00:17 38.49233 15.03808 24089 ft 464 kts 349°
2026-04-28 00:17 38.52340 15.02721 24377 ft 463 kts 337°
2026-04-28 00:17 38.55206 15.00866 24670 ft 463 kts 326°
2026-04-28 00:17 38.57821 14.98458 24960 ft 464 kts 322°
2026-04-28 00:18 38.60453 14.95963 25249 ft 465 kts 322°
2026-04-28 00:18 38.63048 14.93498 25620 ft 464 kts 322°
2026-04-28 00:18 38.65630 14.91053 26043 ft 461 kts 323°
2026-04-28 00:18 38.68213 14.88611 26424 ft 460 kts 323°
2026-04-28 00:19 38.70785 14.86183 26813 ft 459 kts 323°
2026-04-28 00:19 38.73349 14.83761 27204 ft 457 kts 322°
2026-04-28 00:19 38.75899 14.81345 27597 ft 456 kts 322°
2026-04-28 00:19 38.78405 14.78959 27987 ft 454 kts 322°
2026-04-28 00:20 38.80970 14.76512 28383 ft 452 kts 322°
2026-04-28 00:20 38.83459 14.74141 28773 ft 451 kts 322°
2026-04-28 00:20 38.85973 14.71751 29162 ft 449 kts 322°
2026-04-28 00:20 38.88483 14.69367 29561 ft 447 kts 322°
2026-04-28 00:21 38.90976 14.66993 29965 ft 445 kts 322°
2026-04-28 00:21 38.93458 14.64624 30329 ft 444 kts 322°
2026-04-28 00:21 38.95962 14.62228 30641 ft 443 kts 322°
2026-04-28 00:21 38.98427 14.59871 30928 ft 442 kts 322°
2026-04-28 00:22 39.00894 14.57510 31222 ft 442 kts 322°
2026-04-28 00:22 39.03326 14.55180 31502 ft 442 kts 322°
2026-04-28 00:22 39.05788 14.52818 31789 ft 441 kts 322°
2026-04-28 00:22 39.08279 14.50424 32071 ft 441 kts 322°
2026-04-28 00:23 39.10737 14.48062 32355 ft 441 kts 322°
2026-04-28 00:23 39.13193 14.45703 32664 ft 441 kts 322°
2026-04-28 00:23 39.15647 14.43347 32976 ft 439 kts 322°
2026-04-28 00:23 39.18091 14.40995 33289 ft 438 kts 322°
2026-04-28 00:24 39.20531 14.38642 33588 ft 438 kts 322°
2026-04-28 00:24 39.22971 14.36291 33881 ft 437 kts 322°
2026-04-28 00:24 39.25406 14.33944 34083 ft 437 kts 322°
2026-04-28 00:25 39.30273 14.29233 34119 ft 437 kts 322°
2026-04-28 00:25 39.35130 14.24518 34119 ft 437 kts 322°
2026-04-28 00:26 39.39986 14.19804 34119 ft 436 kts 322°
2026-04-28 00:26 39.44805 14.15123 34119 ft 436 kts 322°
2026-04-28 00:27 39.49650 14.10406 34119 ft 436 kts 322°
2026-04-28 00:27 39.54492 14.05683 34119 ft 436 kts 322°
2026-04-28 00:28 39.59335 14.00950 34116 ft 436 kts 322°
2026-04-28 00:28 39.64169 13.96217 34129 ft 436 kts 322°
2026-04-28 00:29 39.69003 13.91474 34131 ft 435 kts 322°
2026-04-28 00:29 39.73830 13.86727 34129 ft 435 kts 322°
2026-04-28 00:30 39.78657 13.81978 34116 ft 435 kts 322°
2026-04-28 00:30 39.83486 13.77225 34114 ft 435 kts 322°
2026-04-28 00:31 39.88316 13.72453 34112 ft 436 kts 322°
2026-04-28 00:31 39.93143 13.67674 34112 ft 436 kts 322°
2026-04-28 00:32 39.97968 13.62888 34115 ft 436 kts 322°
2026-04-28 00:32 40.02792 13.58090 34116 ft 436 kts 321°
2026-04-28 00:33 40.07615 13.53285 34114 ft 436 kts 322°
2026-04-28 00:33 40.12437 13.48478 34118 ft 436 kts 321°
2026-04-28 00:34 40.17257 13.43669 34118 ft 436 kts 321°
2026-04-28 00:34 40.21297 13.39626 34117 ft 436 kts 321°
2026-04-28 00:35 40.26117 13.34788 34117 ft 436 kts 321°
2026-04-28 00:35 40.30920 13.29916 34117 ft 436 kts 320°
2026-04-28 00:36 40.35541 13.24760 34111 ft 436 kts 317°
2026-04-28 00:36 40.40064 13.19458 34123 ft 436 kts 317°
2026-04-28 00:37 40.44602 13.14183 34126 ft 436 kts 318°
2026-04-28 00:37 40.49177 13.08949 34109 ft 436 kts 318°
2026-04-28 00:38 40.53762 13.03710 34109 ft 437 kts 318°
2026-04-28 00:38 40.58316 12.98481 34109 ft 437 kts 318°
2026-04-28 00:39 40.62891 12.93203 34113 ft 438 kts 318°
2026-04-28 00:39 40.67470 12.87908 34114 ft 438 kts 318°
2026-04-28 00:40 40.72049 12.82610 34111 ft 438 kts 318°
2026-04-28 00:40 40.76633 12.77308 34111 ft 438 kts 318°
2026-04-28 00:41 40.81210 12.71994 34102 ft 439 kts 318°
2026-04-28 00:41 40.85799 12.66654 34101 ft 440 kts 318°
2026-04-28 00:42 40.90389 12.61309 34103 ft 440 kts 318°
2026-04-28 00:42 40.94987 12.55946 34104 ft 441 kts 318°
2026-04-28 00:43 40.99582 12.50572 34102 ft 441 kts 318°
2026-04-28 00:43 41.04178 12.45192 34105 ft 441 kts 318°
2026-04-28 00:44 41.08774 12.39796 34104 ft 441 kts 318°
2026-04-28 00:44 41.13365 12.34387 34102 ft 442 kts 319°
2026-04-28 00:45 41.17968 12.28964 34100 ft 443 kts 319°
2026-04-28 00:45 41.22578 12.23518 34101 ft 443 kts 319°
2026-04-28 00:46 41.27185 12.18056 34104 ft 444 kts 319°
2026-04-28 00:46 41.31797 12.12591 34105 ft 444 kts 319°
2026-04-28 00:47 41.36406 12.07118 34110 ft 444 kts 319°
2026-04-28 00:47 41.40985 12.01664 34111 ft 444 kts 319°
2026-04-28 00:48 41.45624 11.96129 34109 ft 444 kts 319°
2026-04-28 00:48 41.50197 11.90670 34110 ft 444 kts 319°
2026-04-28 00:49 41.54831 11.85120 34108 ft 444 kts 318°
2026-04-28 00:49 41.59399 11.79630 34112 ft 445 kts 319°
2026-04-28 00:50 41.64030 11.74066 34113 ft 445 kts 319°
2026-04-28 00:50 41.68628 11.68531 34113 ft 445 kts 319°
2026-04-28 00:51 41.73190 11.63017 34113 ft 445 kts 319°
2026-04-28 00:51 41.77807 11.57424 34113 ft 445 kts 319°
2026-04-28 00:52 41.82402 11.51863 34110 ft 445 kts 319°
2026-04-28 00:52 41.86962 11.46329 34113 ft 445 kts 319°
2026-04-28 00:53 41.91575 11.40714 34113 ft 445 kts 319°
2026-04-28 00:53 41.96123 11.35152 34114 ft 445 kts 319°
2026-04-28 00:54 42.00708 11.29557 34107 ft 445 kts 319°
2026-04-28 00:54 42.05317 11.23916 34110 ft 445 kts 319°
2026-04-28 00:55 42.09889 11.18303 34115 ft 445 kts 319°
2026-04-28 00:55 42.14460 11.12680 34118 ft 444 kts 319°
2026-04-28 00:56 42.19024 11.07054 34122 ft 444 kts 319°
2026-04-28 00:56 42.23583 11.01434 34118 ft 444 kts 319°
2026-04-28 00:57 42.28109 10.95837 34118 ft 444 kts 319°
2026-04-28 00:57 42.32655 10.90197 34117 ft 444 kts 318°
2026-04-28 00:58 42.37204 10.84539 34117 ft 444 kts 318°
2026-04-28 00:58 42.41751 10.78883 34116 ft 444 kts 318°
2026-04-28 00:59 42.46292 10.73224 34113 ft 444 kts 318°
2026-04-28 00:59 42.50832 10.67548 34113 ft 444 kts 318°
2026-04-28 01:00 42.55369 10.61863 34118 ft 444 kts 318°
2026-04-28 01:00 42.59902 10.56178 34109 ft 443 kts 318°
2026-04-28 01:01 42.64424 10.50493 34116 ft 443 kts 318°
2026-04-28 01:01 42.68945 10.44797 34117 ft 443 kts 318°
2026-04-28 01:02 42.73597 10.39328 34115 ft 441 kts 327°
2026-04-28 01:02 42.78915 10.35200 34124 ft 440 kts 332°
2026-04-28 01:03 42.84263 10.31167 34121 ft 439 kts 331°
2026-04-28 01:03 42.89606 10.27126 34117 ft 439 kts 331°
2026-04-28 01:04 42.94942 10.23083 34115 ft 439 kts 331°
2026-04-28 01:04 43.00279 10.19037 34107 ft 439 kts 331°
2026-04-28 01:05 43.05611 10.14983 34111 ft 438 kts 331°
2026-04-28 01:05 43.08281 10.12952 33908 ft 439 kts 331°
2026-04-28 01:05 43.10955 10.10918 33041 ft 443 kts 331°
2026-04-28 01:05 43.13656 10.08864 32181 ft 445 kts 331°
2026-04-28 01:06 43.16369 10.06800 31334 ft 447 kts 331°
2026-04-28 01:06 43.19098 10.04719 30450 ft 451 kts 331°
2026-04-28 01:06 43.21853 10.02614 29356 ft 456 kts 331°
2026-04-28 01:06 43.24629 10.00486 28385 ft 457 kts 330°
2026-04-28 01:07 43.27406 9.98354 27369 ft 459 kts 330°
2026-04-28 01:07 43.30209 9.96200 26229 ft 465 kts 330°
2026-04-28 01:07 43.33052 9.94015 25155 ft 469 kts 330°
2026-04-28 01:07 43.34938 9.92565 24481 ft 470 kts 330°
2026-04-28 01:08 43.38765 9.89618 23145 ft 471 kts 330°
2026-04-28 01:08 43.41591 9.87439 22372 ft 459 kts 330°
2026-04-28 01:08 43.44343 9.85320 21652 ft 449 kts 330°
2026-04-28 01:08 43.47056 9.83230 20924 ft 445 kts 330°
2026-04-28 01:09 43.49746 9.81152 20114 ft 443 kts 330°
2026-04-28 01:09 43.52425 9.79079 19419 ft 439 kts 330°
2026-04-28 01:09 43.55080 9.77026 18733 ft 436 kts 330°
2026-04-28 01:09 43.57716 9.74983 18002 ft 433 kts 330°
2026-04-28 01:10 43.60328 9.72952 17347 ft 428 kts 330°
2026-04-28 01:10 43.62903 9.70951 16708 ft 422 kts 330°
2026-04-28 01:10 43.65451 9.68970 16090 ft 417 kts 330°
2026-04-28 01:10 43.67961 9.67018 15483 ft 412 kts 330°
2026-04-28 01:11 43.70442 9.65088 14917 ft 407 kts 330°
2026-04-28 01:11 43.72893 9.63177 14364 ft 402 kts 330°
2026-04-28 01:11 43.75310 9.61289 13806 ft 397 kts 330°
2026-04-28 01:11 43.77699 9.59421 13254 ft 391 kts 330°
2026-04-28 01:12 43.80048 9.57580 12776 ft 385 kts 330°
2026-04-28 01:12 43.82332 9.55789 12632 ft 370 kts 330°
2026-04-28 01:12 43.84527 9.54069 12510 ft 355 kts 330°
2026-04-28 01:12 43.86640 9.52415 12371 ft 342 kts 330°
2026-04-28 01:13 43.87993 9.51354 12290 ft 334 kts 330°
2026-04-28 01:13 43.91886 9.48301 12035 ft 310 kts 330°
2026-04-28 01:13 43.93735 9.46850 11908 ft 299 kts 330°
2026-04-28 01:14 43.95514 9.45450 11780 ft 289 kts 329°
2026-04-28 01:14 43.97223 9.44070 11629 ft 279 kts 325°
2026-04-28 01:14 43.98696 9.42372 11471 ft 271 kts 313°
2026-04-28 01:14 43.99871 9.40331 11371 ft 271 kts 303°
2026-04-28 01:15 44.00939 9.38164 11256 ft 272 kts 304°
2026-04-28 01:15 44.02009 9.36006 11135 ft 271 kts 304°
2026-04-28 01:15 44.03142 9.33872 11008 ft 271 kts 312°
2026-04-28 01:15 44.04564 9.32123 10562 ft 279 kts 322°
2026-04-28 01:16 44.06145 9.30462 9871 ft 291 kts 324°
2026-04-28 01:16 44.07967 9.29431 9555 ft 286 kts 355°
2026-04-28 01:16 44.09867 9.29917 9324 ft 278 kts 29°
2026-04-28 01:16 44.11272 9.31684 9029 ft 271 kts 52°
2026-04-28 01:17 44.12427 9.33777 8747 ft 267 kts 53°
2026-04-28 01:17 44.13548 9.35804 8470 ft 262 kts 46°
2026-04-28 01:17 44.15043 9.37037 8220 ft 252 kts 11°
2026-04-28 01:17 44.16724 9.36784 7954 ft 242 kts 332°
2026-04-28 01:18 44.18094 9.35453 7728 ft 239 kts 321°
2026-04-28 01:18 44.19409 9.34043 7509 ft 238 kts 321°
2026-04-28 01:18 44.20718 9.32636 7273 ft 237 kts 321°
2026-04-28 01:18 44.22025 9.31238 7034 ft 237 kts 321°
2026-04-28 01:19 44.23330 9.29848 6828 ft 236 kts 321°
2026-04-28 01:19 44.24635 9.28458 6618 ft 236 kts 321°
2026-04-28 01:19 44.25938 9.27072 6391 ft 235 kts 321°
2026-04-28 01:19 44.27238 9.25693 6179 ft 235 kts 321°
2026-04-28 01:20 44.28538 9.24314 5956 ft 234 kts 321°
2026-04-28 01:20 44.29817 9.22962 5671 ft 224 kts 321°
2026-04-28 01:20 44.31029 9.21685 5405 ft 212 kts 321°
2026-04-28 01:20 44.32178 9.20472 5155 ft 202 kts 321°
2026-04-28 01:21 44.33219 9.19196 4916 ft 197 kts 307°
2026-04-28 01:21 44.33909 9.17592 4799 ft 192 kts 291°
2026-04-28 01:21 44.34378 9.15848 4603 ft 191 kts 286°
2026-04-28 01:21 44.34784 9.14082 4353 ft 191 kts 285°
2026-04-28 01:22 44.35173 9.12313 4095 ft 190 kts 284°
2026-04-28 01:22 44.35558 9.10549 3836 ft 190 kts 285°
2026-04-28 01:22 44.35941 9.08787 3580 ft 189 kts 284°
2026-04-28 01:22 44.36324 9.07024 3317 ft 190 kts 283°
2026-04-28 01:23 44.36700 9.05294 3074 ft 182 kts 283°
2026-04-28 01:23 44.37062 9.03625 2805 ft 178 kts 283°
2026-04-28 01:23 44.37412 9.02009 2554 ft 166 kts 283°
2026-04-28 01:23 44.37740 9.00495 2326 ft 160 kts 283°
2026-04-28 01:24 44.38058 8.99021 2104 ft 157 kts 283°
2026-04-28 01:24 44.38377 8.97558 1874 ft 157 kts 286°
2026-04-28 01:24 44.38747 8.96129 1649 ft 155 kts 289°
2026-04-28 01:24 44.39063 8.94707 1401 ft 153 kts 287°
2026-04-28 01:25 44.39341 8.93290 1177 ft 151 kts 287°
2026-04-28 01:25 44.39662 8.91900 968 ft 150 kts 288°
2026-04-28 01:25 44.39950 8.90505 753 ft 149 kts 284°
2026-04-28 01:25 44.40216 8.89111 543 ft 148 kts 286°
2026-04-28 01:26 44.40491 8.87731 356 ft 147 kts 284°
2026-04-28 01:26 44.40770 8.86362 146 ft 146 kts 286°
2026-04-28 01:26 44.41038 8.85003 27 ft 141 kts 285°
2026-04-28 01:26 44.41262 8.83849 20 ft 96 kts 284°
2026-04-28 01:27 44.41383 8.83247 22 ft 31 kts 288°
2026-04-28 01:27 44.41486 8.83091 24 ft 15 kts 342°
2026-04-28 01:27 44.41547 8.83157 25 ft 11 kts 85°
2026-04-28 01:27 44.41524 8.83296 25 ft 21 kts 105°
2026-04-28 01:28 44.41482 8.83510 22 ft 23 kts 105°
2026-04-28 01:28 44.41439 8.83727 19 ft 24 kts 105°
2026-04-28 01:28 44.41396 8.83948 21 ft 23 kts 105°
2026-04-28 01:28 44.41353 8.84168 17 ft 24 kts 105°
2026-04-28 01:29 44.41313 8.84371 19 ft 14 kts 101°
2026-04-28 01:29 44.41354 8.84480 19 ft 13 kts 52°
2026-04-28 01:29 44.41407 8.84576 18 ft 12 kts 52°
2026-04-28 01:29 44.41457 8.84666 18 ft 11 kts 52°
2026-04-28 01:30 44.41504 8.84750 18 ft 10 kts 52°
2026-04-28 01:30 44.41545 8.84824 18 ft 6 kts 52°
2026-04-28 01:30 44.41554 8.84867 18 ft 4 kts 92°
2026-04-28 01:30 44.41549 8.84900 18 ft 3 kts 104°
2026-04-28 01:31 44.41546 8.84918 18 ft 1 kts 104°
2026-04-28 01:31 44.41543 8.84934 47 ft 2 kts 105°
2026-04-28 01:31 44.41540 8.84947 46 ft 1 kts 105°
2026-04-28 01:31 44.41540 8.84948 46 ft 0 kts 105°